Location: Fornova de Taro
(44.7000°N, 10.1000°E)
Time: 09:08:33
(UTC+00:00)

Cosmos 292 Rocket - Pass Details

Date: 30 September 2022
Orbit: 673 x 692 km, 74.0° (Epoch: 04 December)

Event Time Altitude Azimuth Distance (km) Brightness Sun altitude
Exits shadow 01:12:47 14° 26° (NNE) 1,908 6.6 -40.1°
Drops below altitude 10° 01:13:25 10° 25° (NNE) 2,155 7.0 -40.0°
Sets 01:15:45 0° 24° (NNE) 3,075 7.9 -39.7°
